Meteo pe oră la Abikanda

Astăzi, 5 August, Joi

Timp Temperatura Precipitaţii Vânt Presiune Umiditate
00:00 +25°C° 0 mm 3 m/s 664 mmHg 32%
01:00 +25°C° 0 mm 3 m/s 664 mmHg 32%
02:00 +24°C° 0 mm 3 m/s 664 mmHg 32%
03:00 +24°C° 0 mm 3 m/s 663 mmHg 32%
04:00 +24°C° 0 mm 3 m/s 664 mmHg 33%
05:00 +26°C° 0 mm 3 m/s 664 mmHg 30%
06:00 +28°C° 0 mm 2 m/s 664 mmHg 27%
07:00 +29°C° 0 mm 2 m/s 665 mmHg 24%
08:00 +31°C° 0 mm 3 m/s 665 mmHg 22%
09:00 +33°C° 0 mm 3 m/s 665 mmHg 19%
10:00 +34°C° 0 mm 3 m/s 665 mmHg 17%
11:00 +34°C° 0 mm 4 m/s 665 mmHg 18%
12:00 +34°C° 0 mm 4 m/s 665 mmHg 19%
13:00 +34°C° 0 mm 4 m/s 665 mmHg 19%
14:00 +34°C° 0 mm 3 m/s 664 mmHg 19%
15:00 +34°C° 0 mm 3 m/s 664 mmHg 19%
16:00 +34°C° 0 mm 3 m/s 664 mmHg 18%
17:00 +33°C° 0 mm 3 m/s 664 mmHg 21%
18:00 +30°C° 0 mm 3 m/s 663 mmHg 23%
19:00 +28°C° 0 mm 3 m/s 663 mmHg 25%
20:00 +28°C° 0 mm 3 m/s 663 mmHg 26%
21:00 +27°C° 0 mm 3 m/s 663 mmHg 27%
22:00 +26°C° 0 mm 3 m/s 663 mmHg 28%
23:00 +26°C° 0 mm 3 m/s 662 mmHg 29%

Mâine, 6 August, Vineri

Timp Temperatura Precipitaţii Vânt Presiune Umiditate
00:00 +25°C° 0 mm 3 m/s 662 mmHg 30%
01:00 +25°C° 0 mm 2 m/s 662 mmHg 31%
02:00 +25°C° 0 mm 3 m/s 662 mmHg 31%
03:00 +24°C° 0 mm 3 m/s 662 mmHg 31%
04:00 +24°C° 0 mm 3 m/s 662 mmHg 31%
05:00 +26°C° 0 mm 2 m/s 663 mmHg 29%
06:00 +28°C° 0 mm 2 m/s 663 mmHg 26%
07:00 +30°C° 0 mm 2 m/s 664 mmHg 24%
08:00 +31°C° 0 mm 2 m/s 664 mmHg 22%
09:00 +33°C° 0 mm 3 m/s 664 mmHg 20%
10:00 +34°C° 0 mm 3 m/s 664 mmHg 18%
11:00 +35°C° 0 mm 3 m/s 664 mmHg 17%
12:00 +35°C° 0 mm 4 m/s 664 mmHg 17%
13:00 +36°C° 0 mm 4 m/s 664 mmHg 16%
14:00 +36°C° 0 mm 4 m/s 664 mmHg 17%
15:00 +35°C° 0 mm 4 m/s 664 mmHg 18%
16:00 +35°C° 0 mm 4 m/s 664 mmHg 18%
17:00 +34°C° 0 mm 4 m/s 664 mmHg 21%
18:00 +32°C° 0 mm 4 m/s 663 mmHg 23%
19:00 +29°C° 0 mm 4 m/s 663 mmHg 26%
20:00 +28°C° 0 mm 4 m/s 663 mmHg 27%
21:00 +28°C° 0 mm 4 m/s 663 mmHg 28%
22:00 +27°C° 0 mm 4 m/s 663 mmHg 28%
23:00 +26°C° 0 mm 4 m/s 663 mmHg 29%

Poimâine, 7 August, Sâmbătă

Timp Temperatura Precipitaţii Vânt Presiune Umiditate
00:00 +26°C° 0 mm 3 m/s 663 mmHg 29%
01:00 +25°C° 0 mm 3 m/s 662 mmHg 30%
02:00 +25°C° 0 mm 3 m/s 662 mmHg 30%
03:00 +25°C° 0 mm 3 m/s 663 mmHg 30%
04:00 +25°C° 0 mm 3 m/s 663 mmHg 31%
05:00 +27°C° 0 mm 3 m/s 663 mmHg 28%
06:00 +28°C° 0 mm 3 m/s 664 mmHg 25%
07:00 +30°C° 0 mm 2 m/s 664 mmHg 22%
08:00 +31°C° 0 mm 3 m/s 665 mmHg 20%
09:00 +33°C° 0 mm 4 m/s 665 mmHg 18%
10:00 +35°C° 0 mm 4 m/s 665 mmHg 16%
11:00 +35°C° 0 mm 5 m/s 665 mmHg 16%
12:00 +36°C° 0 mm 6 m/s 665 mmHg 16%
13:00 +36°C° 0 mm 6 m/s 665 mmHg 15%
14:00 +36°C° 0 mm 6 m/s 665 mmHg 16%
15:00 +36°C° 0 mm 7 m/s 665 mmHg 16%
16:00 +35°C° 0 mm 7 m/s 665 mmHg 16%
17:00 +34°C° 0 mm 6 m/s 665 mmHg 19%
18:00 +32°C° 0 mm 5 m/s 664 mmHg 23%
19:00 +29°C° 0 mm 5 m/s 664 mmHg 26%
20:00 +28°C° 0 mm 4 m/s 664 mmHg 28%
21:00 +27°C° 0 mm 4 m/s 664 mmHg 29%
22:00 +27°C° 0 mm 4 m/s 664 mmHg 31%
23:00 +26°C° 0 mm 4 m/s 664 mmHg 31%

8 August, Duminică

Timp Temperatura Precipitaţii Vânt Presiune Umiditate
00:00 +26°C° 0 mm 4 m/s 664 mmHg 31%
01:00 +26°C° 0 mm 3 m/s 664 mmHg 31%
02:00 +25°C° 0 mm 3 m/s 664 mmHg 32%
03:00 +25°C° 0 mm 3 m/s 664 mmHg 32%
04:00 +25°C° 0 mm 3 m/s 664 mmHg 32%
05:00 +27°C° 0 mm 3 m/s 665 mmHg 29%
06:00 +29°C° 0 mm 3 m/s 665 mmHg 25%
07:00 +30°C° 0 mm 3 m/s 666 mmHg 22%
08:00 +33°C° 0 mm 3 m/s 666 mmHg 20%
09:00 +34°C° 0 mm 4 m/s 666 mmHg 17%
10:00 +36°C° 0 mm 4 m/s 667 mmHg 15%
11:00 +36°C° 0 mm 5 m/s 666 mmHg 14%
12:00 +38°C° 0 mm 6 m/s 666 mmHg 14%
13:00 +39°C° 0 mm 7 m/s 666 mmHg 13%
14:00 +39°C° 0 mm 7 m/s 666 mmHg 12%
15:00 +38°C° 0 mm 7 m/s 666 mmHg 12%
16:00 +38°C° 0 mm 8 m/s 666 mmHg 12%
17:00 +35°C° 0 mm 7 m/s 666 mmHg 14%
18:00 +33°C° 0 mm 5 m/s 666 mmHg 15%
19:00 +30°C° 0 mm 4 m/s 665 mmHg 17%
20:00 +29°C° 0 mm 4 m/s 665 mmHg 18%
21:00 +28°C° 0 mm 3 m/s 665 mmHg 19%
22:00 +27°C° 0 mm 3 m/s 665 mmHg 20%
23:00 +27°C° 0 mm 3 m/s 665 mmHg 21%

9 August, Luni

Timp Temperatura Precipitaţii Vânt Presiune Umiditate
00:00 +27°C° 0 mm 3 m/s 665 mmHg 21%
01:00 +27°C° 0 mm 3 m/s 664 mmHg 22%
02:00 +26°C° 0 mm 3 m/s 664 mmHg 23%
03:00 +26°C° 0 mm 3 m/s 664 mmHg 24%
04:00 +25°C° 0 mm 3 m/s 665 mmHg 25%
05:00 +27°C° 0 mm 2 m/s 665 mmHg 23%
06:00 +29°C° 0 mm 2 m/s 666 mmHg 21%
07:00 +31°C° 0 mm 2 m/s 666 mmHg 19%
08:00 +32°C° 0 mm 2 m/s 666 mmHg 17%
09:00 +35°C° 0 mm 3 m/s 667 mmHg 15%
10:00 +36°C° 0 mm 3 m/s 667 mmHg 14%
11:00 +37°C° 0 mm 4 m/s 667 mmHg 13%
12:00 +37°C° 0 mm 5 m/s 667 mmHg 13%
13:00 +39°C° 0 mm 5 m/s 667 mmHg 13%
14:00 +37°C° 0 mm 5 m/s 667 mmHg 13%
15:00 +37°C° 0 mm 5 m/s 667 mmHg 14%
16:00 +36°C° 0 mm 5 m/s 667 mmHg 14%
17:00 +34°C° 0 mm 5 m/s 666 mmHg 16%
18:00 +32°C° 0 mm 4 m/s 666 mmHg 18%
19:00 +29°C° 0 mm 4 m/s 666 mmHg 21%
20:00 +28°C° 0 mm 4 m/s 666 mmHg 22%
21:00 +27°C° 0 mm 3 m/s 666 mmHg 24%
22:00 +26°C° 0 mm 3 m/s 666 mmHg 25%
23:00 +25°C° 0 mm 3 m/s 665 mmHg 26%

10 August, Marţi

Timp Temperatura Precipitaţii Vânt Presiune Umiditate
00:00 +25°C° 0 mm 3 m/s 665 mmHg 27%
01:00 +24°C° 0 mm 3 m/s 664 mmHg 27%
02:00 +24°C° 0 mm 3 m/s 664 mmHg 27%
03:00 +24°C° 0 mm 3 m/s 664 mmHg 27%
04:00 +22°C° 0 mm 3 m/s 664 mmHg 27%
05:00 +25°C° 0 mm 3 m/s 665 mmHg 25%
06:00 +27°C° 0 mm 3 m/s 665 mmHg 22%
07:00 +29°C° 0 mm 2 m/s 666 mmHg 20%
08:00 +30°C° 0 mm 3 m/s 666 mmHg 18%
09:00 +33°C° 0 mm 3 m/s 666 mmHg 17%
10:00 +35°C° 0 mm 3 m/s 666 mmHg 15%
11:00 +35°C° 0 mm 3 m/s 666 mmHg 14%
12:00 +36°C° 0 mm 4 m/s 666 mmHg 13%
13:00 +37°C° 0 mm 4 m/s 666 mmHg 13%
14:00 +36°C° 0 mm 4 m/s 666 mmHg 12%
15:00 +36°C° 0 mm 4 m/s 666 mmHg 12%
16:00 +36°C° 0 mm 4 m/s 666 mmHg 12%
17:00 +33°C° 0 mm 4 m/s 665 mmHg 14%
18:00 +30°C° 0 mm 3 m/s 665 mmHg 15%
19:00 +28°C° 0 mm 3 m/s 665 mmHg 16%
20:00 +27°C° 0 mm 3 m/s 665 mmHg 17%
21:00 +26°C° 0 mm 3 m/s 664 mmHg 18%
22:00 +26°C° 0 mm 3 m/s 664 mmHg 18%
23:00 +26°C° 0 mm 3 m/s 664 mmHg 19%
Arată mai mult

Formular de consimțământ

Meteoprog și furnizorii noștri de servicii pot stoca și accesa date personale, precum cookies, identificatori de dispozitiv sau alte tehnologii similare pe dispozitivul dumneavoastră și procesa astfel de date pentru a personaliza conținutul și reclamele, dar și pentru a oferi caracteristici de social media și pentru a analiza traficul.

  • Stocarea și/sau accesarea informațiilor pe dispozitivul dumneavoastră

    Cookies, identificatori de dispozitiv sau alte informații pot fi stocate sau accesate pe dispozitiv în scopurile indicate mai sus.

  • Reclame și conținut personalizat, evaluarea reclamelor și a conținutului, informații despre audiențe și dezvoltarea produselor

    Reclamele și conținutul pot fi personalizate pe baza unui profil. Pot fi adăugate date suplimentare pentru a personaliza mai bine reclamele și conținutul. Performanța reclamelor și conținutului poate fi măsurată. Pot fi obținute informații despre utilizatorii care au văzut reclamele și conținutul. Aceste date pot fi utilizate pentru a dezvolta sau îmbunătăți experiența utilizatorilor, sistemele și software-ul.

Dând clic pe ‘Sunt de acord’, permiteți utilizarea cookie-urilor menționate, a identificatorilor de dispozitiv, balizelor web sau altor tehnologii similare. Setările pot fi modificate din browser-ul dispozitivului dumneavoastră.

În anumite scopuri, interesele legitime pot prima asupra consimțământului. Puteți citi mai multe informații în acest sens în Politica privind Confidențialitatea Datelor și Cookie.